Location: Arrodets-la-Barthe
(43.0306°N, 0.2829°E)
Time: 19:29:16
(UTC+00:00)

BREEZE-M R/B - Pass Details

Date: 24 October 2021
Orbit: 594 x 26573 km, 48.9° (Epoch: 28 November)

Event Time Altitude Azimuth Distance (km) Brightness Sun altitude
Rises 18:05:57 0° 291° (WNW) 3,240 7.5 -12.3°
Reaches altitude 10° 18:08:23 10° 298° (WNW) 2,006 6.1 -12.8°
Maximum altitude 18:11:50 46° 15° (NNE) 829 3.0 -13.4°
Enters shadow 18:14:24 21° 82° (E) 1,671 4.1 -13.9°
